Torna al catalogo

AISSAT 2

AttivoScienzaPO
NORAD 40075·PAYLOAD·🇳🇴 Norway

Lanciato Jul 8, 2014 da Baikonur Cosmodrome

Loading…

Prossimi Passaggi (prossime 24 ore)

TLE

AggiornatoSource: Space-Track

Epoca: Sep 13, 2026, 22:20 UTC

1 40075U 14037G   26256.93107850  .00001303  00000-0  12889-3 0  9993
2 40075  98.4151 236.1455 0004231 348.1765  11.9353 14.93849629659991

Traccia AISSAT 2 in tempo reale con AllMySat

Download on the App Store